Погода в Кяхте

Погода в Кяхте : погода сейчас, прогноз погоды и архив. Всё, что Вы хотите узнать о погоде в Кяхте!

Поиск расширенной информации на нашем сайте:

Другие новости

Новости СМИ2

Главная страница сайта

Новости сайта

02.10.2013

Напоминаем, что на нашем новом сайте вы можете получить высокодетализированные прогнозы погоды по пунктам России, СНГ и мира (включающие важные для авиации метеовеличины, такие как направление и скорость ветра, видимость, явления погоды, количество и форма облачности, нижняя и верхняя граница облачности), а также ознакомиться с разнообразными материалами по авиационной метеорологии и подборкой полезных ссылок на эту тему.

Сайт Метеоцентр.Азия посвящён разработке технологий оптимизации авиаметеорологического обслуживания, включая проектирование и перспективное создание нескольких автоматизированных авиаметеорологических систем:
- система выпуска высокодетальных прогностических карт явлений погоды для нижнего воздушного пространства по России и ближнему зарубежью;
- система верификации прогнозов TAF (выпускаемых синоптиками официальных АМСГ РФ и ближнего зарубежья) и AUTOTAF (выпускаемых сайтом Метеоцентр.Азия) - выявление ошибок, онлайн-сопоставление с фактической погодой METAR, автоматическое внесение коррективов в прогнозы при резком отклонении фактической погоды от прогноза, подсчёт оправдываемости прогнозов по элементам и в целом;
- система обработки, анализа и отображения авиаметеорологической информации для применения провайдерами метеорологической информации.

Рекомендуем: Популярные фирмы - стеклобанка. В паллетах

Погода в Кяхте - сегодня

Время (UTC), дата Ветер
(°,м/с) 
Видим.   Явления Облачность Т
(°С)
Тd
(°С)
f(%) Тe
(°С)
Pmin
(гПа)
dP
(гПа)
Po
(мм)
O2
(г/м3)
Тmin Tmax R s Состояние
почвы
06 24.04.17 020 (С) 20000 м    ясно 
+8.4 -13.9 19 +8  1024.9  -0.6  698  274           
09 24.04.17 350 (С) 20000 м    ясно 
+9.2 -14.6 17 +8  1023.8  -0.8  698  273           
12 24.04.17 320 (СЗ) 20000 м    ясно 
+6.1 -14.1 22 +6  1025.6  0.6  698  276    +9.4       
15 24.04.17 320 (СЗ) н/о    ясно 
+0.5 -12.2 38 +1  1028.8  1.1  699  282           
18 24.04.17 тихо ()   н/о    ясно 
-2.3 -10.8 52 -2  1029.7  -0.1  699  285           
21 24.04.17 тихо ()   н/о    ясно 
-3.6 -11.1 56 -4  1029.6  -0.5  699  286           
00 25.04.17 150 (ЮВ) 20000 м    ясно 
+1.1 -10.7 41 +2  1028.5  0.6  699  281  -4.3         
03 25.04.17 140 (ЮВ) 20000 м    ясно 
+8.8 -11.8 22 +9  1026  0.2  699  274           
06 25.04.17 130 (ЮВ) 20000 м    ясно 
+12.6 -15.2 13 +12  1023.5  -1.1  698  270           
09 25.04.17 360 (С) 20000 м    ясно 
+13.7 -14.3 13 +14  1022.1  -1  698  269           
12 25.04.17 340 (С) 20000 м    1/0 верхняя 
[Ci fib]
+10 -15.3 15 +10  1024.6  1.2  699  273    +14.2       
15 25.04.17 340 (С) н/о    ясно 
+3.7 -11.5 32 +5  1029.3  2.2  700  279           
18 25.04.17 330 (СЗ) н/о    ясно 
+3.7 -11.1 33 +3  1030.5  1.1  701  280           
21 25.04.17 350 (С) н/о    ясно 
+2.3 -11.6 35 +3  1031.7  0.6  702  281           
00 26.04.17 010 (С) 20000 м    ясно 
+7.3 -11.5 25 +7  1031.4  1.4  703  277  +0.1         
03 26.04.17 360 (С) 20000 м    3/0 верхняя 
[Ci fib]
+14.2 -13 14 +14  1029.5  0.4  703  270           
06 26.04.17 300 (СЗ) 20000 м    6/0 верхняя 
[Ci fib]
+16.8 -11.8 13 +17  1026.7  -1.8  702  267           
09 26.04.17 320 (СЗ) 20000 м    6/0 верхняя 
[Ci fib]
+18.4 -12.7 11 +19  1023.6  -2.3  700  265           
12 26.04.17 310 (СЗ) 20000 м    4/0 верхняя 
[Ci fib]
+14 -11.5 16 +15  1023.9  -1.1  699  269    +18.9       
15 26.04.17 тихо ()   н/о    4/0 верхняя 
[Ci fib]
+5.2 -9.8 33 +5  1027.2  0.3  699  277           
18 26.04.17 010 (С) н/о    3/0 верхняя 
[Ci fib]
+6.2 -12.9 24 +7  1025.7  -1.1  698  276           
21 26.04.17 340 (С) н/о    10/8 2000 м средняя, верхняя 
[Ac trans|Ci fib]
+6.9 -11.8 25 +8  1024.3  -1  698  275           
00 27.04.17 тихо ()   20000 м    10/4 2000 м средняя, верхняя 
[Ac trans|Ci fib]
+9.4 -10.7 23 +9  1023.6  -0.1  698  273  +3.9         
03 27.04.17 050 (СВ) 20000 м    10/10 2000 м 
[Ac und]
+15.7 -10.1 16 +17  1021.1  -0.3  698  267           
06 27.04.17 350 (С) 20000 м  дым  10/4 2000 м средняя, верхняя 
[Ac lent|Cs]
+20.2 -7.3 15 +20  1017.1  -2.3  696  262           
Время (UTC), дата Ветер
(°,м/с) 
Видим.   Явления Облачность Т
(°С)
Тd
(°С)
f(%) Тe
(°С)
Pmin
(гПа)
dP
(гПа)
Po
(мм)
O2
(г/м3)
Тmin Tmax R s Состояние
почвы

Для получения пояснительной информации подведите курсор к названию столбца.

ПОГОДА в Кяхте - архив

Всё, что Вы хотите узнать о погоде в Кяхте - удобно и подробно!

Выберите нужную дату (начиная с 1 января 2015* года) и нажмите кнопку "Найти".
Будут отображены архивные сводки погоды по пункту Кяхта, начиная с указанной даты.


Отображать данные в формате CSV (для использования в таблицах Excel)


Внимание! Наш архив погоды предназначен исключительно для личного некоммерческого использования в познавательных целях. Если Вам необходимы официальные справки о состоянии погоды (для производственных, юридических, коммерческих и т.п. целей), обращайтесь в органы Росгидромета.

*Примечание: данная дата относится к архиву по метеостанциям СССР (Россия, СНГ, Балтия).
Архив по метеостанциям Зарубежной Европы и Азии (кроме Китая) хранится 10 дней, по другим регионам земного шара (Китай, Африка, Америка, Австралия, Океания) - 1 день.

Кяхта - район местоположения метеостанции


Название, широта, долгота, высота метеостанции:
Кяхта 50.4°ш. 106.4°д. 797 м над ур. моря [Российская Федерация]

Дополнительная информация

В oтличие oт бoльшинства пoгoдных сайтoв мы публикуем пoдрoбную метеoинфoрмацию в детальнoм прoфессиoнальнoм фoрмате.

Характеристики температуры и влажнoсти вoздуха измеряются на высoте 2 м в тени вдали oт зданий и деревьев.
Скoрoсть ветра измеряется на высoте 10 м (на урoвне рoста челoвека скoрoсть ветра ниже в 1.5-2 раза). Если метеoстанция нахoдится в гoрoде или в лесу, тo скoрoсть ветра занижена на 2-4 м/с пo сравнению с oткрытым местoм. Скoрoсть ветра над акватoриями крупных рек и oзёр, а также на вершинах хoлмoв на 2-5 м/с выше, чем в oбычных услoвиях.
Атмoсфернoе давление в разных тoчках местнoсти мoжет значительнo oтличаться oт давления на метеoстанции, в зависимoсти oт услoвий рельефа (при пoдъёме на 10 м давление пoнижается примернo на 1 мм рт.ст.).